Location: Morisset
(33.1080°S, 151.4871°E)
Time: 09:12:25
(UTC+00:00)

ATLAS 5 CENTAUR R/B - Pass Details

Date: 29 October 2020
Orbit: 531 x 1127 km, 63.4° (Epoch: 22 November)

Event Time Altitude Azimuth Distance (km) Brightness Sun altitude
Exits shadow 17:11:51 26° 266° (W) 2,024 3.7 -20.7°
Maximum altitude 17:14:19 32° 231° (SW) 1,772 3.7 -20.3°
Drops below altitude 10° 17:20:22 10° 169° (S) 2,828 5.5 -19.2°
Sets 17:23:11 0° 159° (SSE) 3,701 6.4 -18.7°
